EW9422 Weather Reports


Display with metric or nautical units.
time (UTC)temp
F
wind
direction
speed
MPH
gust
MPH
rain 1hr
in
rain 24hr
in
rain mn
in
humidity
%
barometer
mb
20191208220527 50 180 1.0 0.0 0.00 0.00 0.00 99 1019.1
20191208220207 50 180 1.0 0.0 0.00 0.00 0.00 99 1019.1
20191208215551 50 179 1.0 0.0 0.00 0.00 0.00 99 1019.1
20191208215002 50 180 2.0 0.0 0.00 0.00 0.00 99 1019.1
20191208214632 50 180 1.0 0.0 0.00 0.00 0.00 99 1019.1
20191208214012 50 203 1.0 0.0 0.00 0.00 0.00 99 1019.1
20191208213549 50 74 1.0 0.0 0.00 0.00 0.00 99 1019.1
20191208213133 50 73 0.0 0.0 0.00 0.00 0.00 99 1019.0
20191208212557 50 74 0.0 0.0 0.00 0.00 0.00 99 1018.9
20191208212049 50 73 0.0 0.0 0.00 0.00 0.00 99 1018.9
20191208211527 50 73 0.0 0.0 0.00 0.00 0.00 99 1018.8
20191208211100 50 74 0.0 0.0 0.00 0.00 0.00 99 1018.9
20191208210520 50 74 0.0 0.0 0.00 0.00 0.00 99 1018.8
20191208210122 50 73 1.0 0.0 0.00 0.00 0.00 99 1018.8
20191208205536 50 73 1.0 0.0 0.00 0.00 0.00 99 1018.7
20191208205004 50 73 1.0 0.0 0.00 0.00 0.00 99 1018.6
20191208204642 49 73 1.0 0.0 0.00 0.00 0.00 99 1018.6
20191208204035 49 73 1.0 0.0 0.00 0.00 0.00 99 1018.6
20191208203526 49 66 1.0 0.0 0.00 0.00 0.00 99 1018.5
20191208203211 49 71 1.0 0.0 0.00 0.00 0.00 99 1018.5
20191208202534 49 71 1.0 0.0 0.00 0.00 0.00 99 1018.4
20191208202056 49 71 1.0 0.0 0.00 0.00 0.00 99 1018.3
20191208201624 49 67 1.0 0.0 0.00 0.00 0.00 99 1018.2
20191208201011 49 82 2.0 0.0 0.00 0.00 0.00 99 1018.2
20191208200553 49 90 2.0 0.0 0.00 0.00 0.00 99 1018.2
20191208200030 49 83 1.0 0.0 0.00 0.00 0.00 99 1018.1
20191208195554 49 72 2.0 0.0 0.00 0.00 0.00 99 1018.2
20191208195042 49 70 2.0 0.0 0.00 0.00 0.00 99 1018.2
20191208194506 49 66 2.0 0.0 0.00 0.00 0.00 99 1018.2
20191208194102 49 65 2.0 0.0 0.00 0.00 0.00 99 1018.2
20191208193521 49 66 2.0 0.0 0.00 0.00 0.00 99 1018.2
20191208193232 49 62 2.0 0.0 0.00 0.00 0.00 99 1018.2
20191208192539 49 74 2.0 0.0 0.00 0.00 0.00 99 1018.1
20191208191618 49 74 2.0 0.0 0.00 0.00 0.00 99 1018.1
20191208191004 49 61 3.0 0.0 0.00 0.00 0.00 98 1017.9
20191208190538 49 60 2.0 0.0 0.00 0.00 0.00 98 1018.0
20191208190020 49 70 2.0 0.0 0.00 0.00 0.00 98 1018.0
20191208185544 49 89 2.0 0.0 0.00 0.00 0.00 98 1017.9
20191208185022 49 82 1.0 0.0 0.00 0.00 0.00 99 1017.9
20191208184619 49 70 2.0 0.0 0.00 0.00 0.00 99 1017.9
20191208184035 49 70 2.0 0.0 0.00 0.00 0.00 99 1017.9
20191208183505 49 116 2.0 0.0 0.00 0.00 0.00 99 1017.9
20191208183122 49 148 2.0 0.0 0.00 0.00 0.00 99 1017.9
20191208182518 49 127 2.0 0.0 0.00 0.00 0.00 99 1017.9
20191208182048 49 128 2.0 0.0 0.00 0.00 0.00 99 1017.8
20191208181619 49 130 1.0 0.0 0.00 0.00 0.00 99 1017.8
20191208181105 49 127 1.0 0.0 0.00 0.00 0.00 99 1017.7
20191208180508 49 126 1.0 0.0 0.00 0.00 0.00 99 1017.6
20191208180124 49 99 1.0 0.0 0.00 0.00 0.00 99 1017.5
20191208175510 49 89 1.0 0.0 0.00 0.00 0.00 99 1017.4
20191208175037 49 89 1.0 0.0 0.00 0.00 0.00 99 1017.4
20191208174651 49 89 1.0 0.0 0.00 0.00 0.00 99 1017.3
20191208174028 48 89 0.0 0.0 0.00 0.00 0.00 99 1017.3
20191208173558 48 89 0.0 0.0 0.00 0.00 0.00 99 1017.3
20191208173108 48 88 0.0 0.0 0.00 0.00 0.00 99 1017.2
20191208172040 48 89 0.0 0.0 0.00 0.00 0.00 99 1017.1
20191208171519 48 89 0.0 0.0 0.00 0.00 0.00 99 1017.1
20191208171053 48 89 0.0 0.0 0.00 0.00 0.00 99 1017.1
20191208170534 48 89 0.0 0.0 0.00 0.00 0.00 99 1017.0
20191208170206 48 89 0.0 0.0 0.00 0.00 0.00 99 1017.0
20191208165540 48 89 0.0 0.0 0.00 0.00 0.00 99 1017.0
20191208165012 48 89 0.0 0.0 0.00 0.00 0.00 99 1016.9
20191208164631 48 89 0.0 0.0 0.00 0.00 0.00 99 1016.9
20191208164028 48 89 0.0 0.0 0.00 0.00 0.00 99 1016.7
20191208163525 48 90 0.0 0.0 0.00 0.00 0.00 99 1016.7
20191208163155 47 89 0.0 0.0 0.00 0.00 0.00 99 1016.5
20191208162536 47 89 0.0 0.0 0.00 0.00 0.00 99 1016.4
20191208162103 47 89 0.0 0.0 0.00 0.00 0.00 99 1016.3
20191208161613 47 89 0.0 0.0 0.00 0.00 0.00 99 1016.3
20191208161008 47 89 1.0 0.0 0.00 0.00 0.00 99 1016.1
20191208160536 47 89 1.0 0.0 0.00 0.00 0.00 99 1015.9
20191208160052 47 88 1.0 0.0 0.00 0.00 0.00 99 1015.8
20191208155550 47 89 1.0 0.0 0.00 0.00 0.00 99 1015.6
20191208155030 47 88 1.0 0.0 0.00 0.00 0.00 98 1015.4
20191208154523 47 73 1.0 0.0 0.00 0.00 0.00 98 1015.4
20191208154048 47 73 1.0 0.0 0.00 0.00 0.00 98 1015.4
20191208153528 47 74 2.0 0.0 0.00 0.00 0.00 98 1015.3
20191208152542 47 78 2.0 0.0 0.00 0.00 0.00 98 1015.3
20191208152017 47 69 2.0 0.0 0.00 0.00 0.00 98 1015.2
20191208151641 47 6 1.0 0.0 0.00 0.00 0.00 98 1015.3
20191208151029 47 6 1.0 0.0 0.00 0.00 0.00 98 1015.2
20191208150547 47 280 1.0 0.0 0.00 0.00 0.00 98 1015.2
20191208150108 47 280 1.0 0.0 0.00 0.00 0.00 98 1015.2
20191208145606 47 279 1.0 0.0 0.00 0.00 0.00 98 1015.1
20191208145042 47 280 0.0 0.0 0.00 0.00 0.00 98 1015.2
20191208144605 47 279 0.0 0.0 0.00 0.00 0.00 98 1015.2
20191208144055 47 279 0.0 0.0 0.00 0.00 0.00 98 1015.1
20191208143532 47 280 0.0 0.0 0.00 0.00 0.00 98 1015.0
20191208142538 47 279 0.0 0.0 0.00 0.00 0.00 98 1014.9
20191208141555 48 279 0.0 0.0 0.00 0.00 0.00 98 1014.8
20191208141020 48 279 0.0 0.0 0.00 0.00 0.00 98 1014.8
20191208140535 48 280 1.0 0.0 0.00 0.00 0.00 98 1014.7
20191208140033 48 279 1.0 0.0 0.00 0.00 0.00 98 1014.7
20191208135543 48 279 0.0 0.0 0.00 0.00 0.00 98 1014.6
20191208135024 48 279 0.0 0.0 0.00 0.00 0.00 98 1014.5
20191208134645 48 279 0.0 0.0 0.00 0.00 0.00 100 1014.4
20191208134030 48 280 0.0 0.0 0.00 0.00 0.00 98 1014.2
20191208133601 48 279 1.0 0.0 0.00 0.00 0.00 98 1014.1
20191208133050 48 279 1.0 0.0 0.00 0.00 0.00 98 1014.1
20191208132559 48 279 1.0 0.0 0.00 0.00 0.00 98 1014.0
20191208132039 48 279 0.0 0.0 0.00 0.00 0.00 98 1014.0
20191208131537 48 278 0.0 0.0 0.00 0.00 0.00 98 1014.0
20191208131050 48 279 0.0 0.0 0.00 0.00 0.00 98 1013.9
20191208130510 48 280 0.0 0.0 0.00 0.00 0.00 98 1013.7
20191208130210 48 279 0.0 0.0 0.00 0.00 0.00 98 1013.7
20191208125545 48 279 0.0 0.0 0.00 0.00 0.00 98 1013.7
20191208125022 48 279 0.0 0.0 0.00 0.00 0.00 98 1013.7
20191208124704 48 279 0.0 0.0 0.00 0.00 0.00 98 1013.8
20191208124047 48 280 0.0 0.0 0.00 0.00 0.00 98 1013.8
20191208123501 48 279 0.0 0.0 0.00 0.00 0.00 99 1013.7
20191208123122 48 279 0.0 0.0 0.00 0.00 0.00 98 1013.6
20191208122525 48 279 0.0 0.0 0.00 0.00 0.00 99 1013.6
20191208122055 48 279 0.0 0.0 0.00 0.00 0.00 98 1013.5
20191208121626 48 279 0.0 0.0 0.00 0.00 0.00 98 1013.4
20191208121113 48 279 0.0 0.0 0.00 0.00 0.00 98 1013.3
20191208120529 48 279 1.0 0.0 0.00 0.00 0.00 98 1013.3
20191208120001 48 279 1.0 0.0 0.00 0.00 0.00 98 1013.3
20191208115545 48 279 1.0 0.0 0.00 0.00 0.00 98 1013.2
20191208115029 48 279 1.0 0.0 0.00 0.00 0.00 98 1013.2
20191208114629 48 280 1.0 0.0 0.00 0.00 0.00 98 1013.1
20191208114036 48 279 1.0 0.0 0.00 0.00 0.00 98 1013.1
20191208113517 48 280 1.0 0.0 0.00 0.00 0.00 98 1013.0
20191208113103 48 280 1.0 0.0 0.00 0.00 0.00 98 1012.9
20191208112535 48 236 1.0 0.0 0.00 0.00 0.00 98 1012.9
20191208112017 48 236 1.0 0.0 0.00 0.00 0.00 98 1012.8
20191208111612 48 236 1.0 0.0 0.00 0.00 0.00 99 1012.8
20191208111025 48 236 1.0 0.0 0.00 0.00 0.00 98 1013.0
20191208110610 48 236 1.0 0.0 0.00 0.00 0.00 99 1012.8
20191208110030 48 236 2.0 0.0 0.00 0.00 0.00 99 1012.9
20191208105547 48 236 1.0 0.0 0.00 0.00 0.00 99 1012.8
20191208105024 48 238 1.0 0.0 0.00 0.00 0.00 98 1012.7
20191208104659 48 238 0.0 0.0 0.00 0.00 0.00 98 1012.5
20191208104031 48 238 0.0 0.0 0.00 0.00 0.00 98 1012.4
20191208103608 48 238 0.0 0.0 0.00 0.00 0.00 98 1012.4
20191208103133 48 238 0.0 0.0 0.00 0.00 0.00 98 1012.3
20191208102504 48 238 0.0 0.0 0.00 0.00 0.00 98 1012.3
20191208102040 47 238 0.0 0.0 0.00 0.00 0.00 98 1012.1
20191208101523 47 238 0.0 0.0 0.00 0.00 0.00 98 1012.0
20191208101042 47 238 0.0 0.0 0.00 0.00 0.00 98 1011.9
20191208100521 47 238 0.0 0.0 0.00 0.00 0.00 98 1011.8
20191208100200 47 238 0.0 0.0 0.00 0.00 0.00 98 1011.7
20191208095511 47 238 0.0 0.0 0.00 0.00 0.00 98 1011.5
20191208095045 47 238 0.0 0.0 0.00 0.00 0.00 98 1011.5
20191208094515 47 238 0.0 0.0 0.00 0.00 0.00 98 1011.4
20191208094054 47 238 0.0 0.0 0.00 0.00 0.00 98 1011.4
20191208093512 47 237 0.0 0.0 0.00 0.00 0.00 98 1011.3
20191208093122 47 238 0.0 0.0 0.00 0.00 0.00 98 1011.2
20191208092525 47 238 0.0 0.0 0.00 0.00 0.00 98 1011.2
20191208092055 47 238 0.0 0.0 0.00 0.00 0.00 98 1011.2
20191208091003 47 238 0.0 0.0 0.00 0.00 0.00 98 1011.1
20191208090541 47 238 1.0 0.0 0.00 0.00 0.00 98 1011.1
20191208090002 47 238 1.0 0.0 0.00 0.00 0.00 98 1011.1
20191208085546 47 159 1.0 0.0 0.00 0.00 0.00 99 1011.1
20191208085030 47 157 1.0 0.0 0.00 0.00 0.00 98 1011.0
20191208084718 47 85 1.0 0.0 0.00 0.00 0.00 98 1011.0
20191208084039 47 85 1.0 0.0 0.00 0.00 0.00 98 1010.8
20191208083520 47 85 0.0 0.0 0.00 0.00 0.00 98 1010.7
20191208083137 47 85 0.0 0.0 0.00 0.00 0.00 98 1010.6
20191208082537 47 85 1.0 0.0 0.00 0.00 0.00 98 1010.4
20191208082002 47 85 1.0 0.0 0.00 0.00 0.00 98 1010.3
20191208081739 47 85 0.0 0.0 0.00 0.00 0.00 98 1010.2
20191208081034 47 85 1.0 0.0 0.00 0.00 0.00 98 1010.2
20191208080600 47 85 1.0 0.0 0.00 0.00 0.00 98 1010.1
20191208080128 47 85 1.0 0.0 0.00 0.00 0.69 98 1010.0
20191208075029 47 87 2.0 0.0 0.00 0.00 0.69 98 1009.8
20191208074734 47 78 2.0 0.0 0.00 0.00 0.69 98 1009.7
20191208074036 47 77 2.0 0.0 0.00 0.00 0.69 98 1009.8
20191208073521 47 74 1.0 0.0 0.00 0.00 0.69 98 1009.8
20191208073216 48 74 2.0 0.0 0.00 0.00 0.69 98 1009.8
20191208072513 48 74 2.0 0.0 0.00 0.00 0.69 98 1009.8
20191208072053 48 74 2.0 0.0 0.00 0.00 0.69 98 1009.6
20191208071533 48 74 2.0 0.0 0.00 0.00 0.69 98 1009.6
20191208070532 48 67 2.0 0.0 0.00 0.00 0.69 98 1009.6
20191208065539 48 69 2.0 0.0 0.00 0.00 0.69 98 1009.5
20191208065021 47 64 1.0 0.0 0.00 0.00 0.69 98 1009.4
20191208064843 47 33 1.0 0.0 0.00 0.00 0.69 98 1009.4
20191208064040 47 32 1.0 0.0 0.00 0.00 0.69 98 1009.3
20191208063518 47 32 0.0 0.0 0.00 0.00 0.69 98 1009.3
20191208063217 47 32 0.0 0.0 0.00 0.00 0.69 98 1009.3
20191208062546 47 32 0.0 0.0 0.00 0.00 0.69 98 1009.3
20191208062002 47 33 1.0 0.0 0.00 0.00 0.69 98 1009.2
20191208061655 47 32 1.0 0.0 0.00 0.00 0.69 98 1009.2
20191208061020 47 32 1.0 0.0 0.00 0.00 0.69 98 1009.2
20191208060542 47 32 1.0 0.0 0.00 0.00 0.69 98 1009.2
20191208060041 47 32 1.0 0.0 0.00 0.00 0.69 98 1009.1
20191208055556 47 32 1.0 0.0 0.00 0.00 0.69 98 1009.0
20191208055044 47 155 0.0 0.0 0.00 0.00 0.69 98 1009.0
20191208054517 47 155 1.0 0.0 0.00 0.00 0.69 98 1009.0
20191208054053 47 155 1.0 0.0 0.00 0.00 0.69 98 1009.0
20191208053541 47 155 1.0 0.0 0.00 0.00 0.69 98 1008.8
20191208053007 47 155 1.0 0.0 0.00 0.00 0.69 98 1008.6
20191208052604 46 155 2.0 0.0 0.00 0.00 0.69 98 1008.5
20191208052038 47 154 1.0 0.0 0.00 0.00 0.68 98 1008.4
20191208051035 47 154 0.0 0.0 0.00 0.00 0.68 98 1008.4
20191208050554 47 154 0.0 0.0 0.00 0.00 0.68 98 1008.4
20191208050047 47 154 0.0 0.0 0.00 0.00 0.68 98 1008.4
20191208045035 47 155 0.0 0.0 0.00 0.00 0.68 97 1008.3
20191208044536 48 154 0.0 0.0 0.00 0.00 0.68 98 1008.2
20191208044049 48 154 0.0 0.0 0.00 0.00 0.68 98 1008.1
20191208043523 48 154 0.0 0.0 0.00 0.00 0.68 98 1008.0
20191208043204 48 154 0.0 0.0 0.00 0.00 0.68 98 1007.9
20191208042525 48 154 0.0 0.0 0.00 0.00 0.68 98 1007.9
20191208042058 48 154 0.0 0.0 0.00 0.00 0.68 98 1007.8
20191208041639 48 154 0.0 0.0 0.00 0.00 0.68 98 1007.7
20191208041004 48 154 0.0 0.0 0.00 0.00 0.68 98 1007.7
20191208040529 48 154 1.0 0.0 0.00 0.00 0.68 98 1007.6
20191208035540 48 154 0.0 0.0 0.00 0.00 0.68 98 1007.6
20191208035008 48 154 1.0 0.0 0.00 0.00 0.68 98 1007.6
20191208034604 48 154 1.0 0.0 0.00 0.00 0.68 98 1007.6
20191208034007 48 154 1.0 0.0 0.00 0.00 0.68 98 1007.5
20191208033551 48 155 0.0 0.0 0.00 0.00 0.68 98 1007.4
20191208033035 48 153 0.0 0.0 0.00 0.00 0.68 98 1007.3
20191208032552 48 154 1.0 0.0 0.00 0.00 0.68 98 1007.3
20191208032026 48 154 1.0 0.0 0.00 0.00 0.68 98 1007.2
20191208031709 48 153 1.0 0.0 0.00 0.00 0.68 98 1007.3
20191208031036 48 215 1.0 0.0 0.00 0.00 0.68 98 1007.2
20191208030558 48 215 1.0 0.0 0.00 0.00 0.68 98 1007.2
20191208030111 48 215 0.0 0.0 0.00 0.00 0.68 98 1007.1
20191208025509 48 151 0.0 0.0 0.00 0.00 0.68 98 1007.0
20191208025056 48 151 1.0 0.0 0.00 0.00 0.68 98 1006.9
20191208024655 48 151 1.0 0.0 0.00 0.00 0.68 98 1006.8
20191208024024 48 151 1.0 0.0 0.00 0.00 0.68 98 1006.7
20191208023611 48 151 0.0 0.0 0.00 0.00 0.68 98 1006.7
20191208023122 48 151 1.0 0.0 0.00 0.00 0.68 98 1006.6
20191208022524 48 151 1.0 0.0 0.00 0.00 0.68 98 1006.6
20191208022054 48 151 1.0 0.0 0.00 0.00 0.68 98 1006.5
20191208021602 48 151 1.0 0.0 0.00 0.00 0.68 98 1006.5
20191208021055 48 151 1.0 0.0 0.00 0.00 0.68 98 1006.6
20191208020522 48 151 1.0 0.0 0.00 0.00 0.68 98 1006.5
20191208015541 48 176 1.0 0.0 0.00 0.00 0.68 98 1006.4
20191208015007 49 176 0.0 0.0 0.00 0.00 0.68 98 1006.4
20191208014643 49 176 0.0 0.0 0.00 0.00 0.68 98 1006.4
20191208014031 49 176 0.0 0.0 0.00 0.00 0.68 98 1006.4
20191208013501 49 176 0.0 0.0 0.00 0.00 0.68 98 1006.4
20191208013214 49 176 1.0 0.0 0.00 0.00 0.68 98 1006.4
20191208012521 49 176 1.0 0.0 0.00 0.00 0.68 98 1006.4
20191208012055 49 176 1.0 0.0 0.00 0.00 0.68 98 1006.3
20191208011620 49 176 1.0 0.0 0.00 0.00 0.68 98 1006.3
20191208011009 49 176 1.0 0.0 0.00 0.00 0.68 98 1006.2
20191208010543 49 182 1.0 0.0 0.00 0.00 0.68 98 1006.1
20191208010025 49 133 2.0 0.0 0.00 0.00 0.68 98 1006.0
20191208005549 49 133 2.0 0.0 0.00 0.00 0.68 98 1006.0
20191208005006 49 156 2.0 0.0 0.00 0.00 0.68 98 1006.0
20191208004657 49 155 2.0 0.0 0.00 0.00 0.68 98 1006.0
20191208004030 49 171 2.0 0.0 0.00 0.00 0.68 98 1006.0
20191208003117 49 171 1.0 0.0 0.00 0.00 0.68 98 1005.9
20191208002516 49 170 1.0 0.0 0.00 0.00 0.68 98 1005.8
20191208002040 50 170 1.0 0.0 0.00 0.00 0.68 98 1005.8
20191208001541 50 170 2.0 0.0 0.00 0.00 0.68 98 1005.8
20191208001052 50 170 2.0 0.0 0.00 0.00 0.68 98 1005.7
20191208000505 50 173 2.0 0.0 0.00 0.00 0.68 98 1005.6
20191208000117 50 169 2.0 0.0 0.00 0.00 0.68 98 1005.5
20191207235523 50 170 2.0 0.0 0.00 0.00 0.68 98 1005.5
20191207235057 50 166 2.0 0.0 0.00 0.00 0.68 98 1005.5
20191207234609 50 177 2.0 0.0 0.00 0.00 0.68 98 1005.4
20191207233534 50 177 1.0 0.0 0.00 0.00 0.68 98 1005.3
20191207232536 50 174 2.0 0.0 0.00 0.00 0.68 98 1005.2
20191207232003 50 169 2.0 0.0 0.00 0.00 0.68 98 1005.2
20191207231550 50 175 2.0 0.0 0.00 0.00 0.68 98 1005.2
20191207231002 50 180 3.0 0.0 0.00 0.00 0.68 98 1005.1
20191207230547 50 169 3.0 0.0 0.00 0.00 0.68 98 1005.1
20191207230048 50 151 3.0 0.0 0.00 0.00 0.68 98 1005.0
20191207225555 50 164 2.0 0.0 0.00 0.00 0.68 98 1005.0
20191207225032 50 164 3.0 0.0 0.00 0.00 0.68 98 1005.0
20191207224514 50 158 3.0 0.0 0.00 0.00 0.68 98 1004.9
20191207224042 50 145 3.0 0.0 0.00 0.00 0.68 98 1004.9
20191207223523 51 125 3.0 0.0 0.00 0.00 0.68 98 1004.9
20191207223144 50 130 3.0 0.0 0.00 0.00 0.68 98 1004.9
20191207222535 50 140 3.0 0.0 0.00 0.00 0.68 98 1004.8
20191207222004 51 153 3.0 0.0 0.00 0.00 0.68 98 1004.9
20191207221630 51 129 3.0 0.0 0.00 0.00 0.68 98 1004.9
20191207221024 51 149 3.0 0.0 0.00 0.00 0.68 98 1004.9